{"data":{"norad_id":67583,"intl_designator":"2026-016Y","name":"STARLINK-36577","alt_names":[],"object_type":"PAYLOAD","status":"ACTIVE","operator":null,"country":"US","launch_date":"2026-01-25","launch_site_code":"AFWTR","launch_vehicle":null,"mission":null,"orbit_class":"UNKNOWN","rcs_meters":null,"size_class":null,"mass_kg":null,"dimensions":null,"purposes":["comms"],"wikipedia_slug":null,"has_3d_model":false,"image_url":null,"decayed_at":null,"tle_current":{"epoch":"2026-09-19T10:45:27.814176Z","epoch_age_seconds":159854,"freshness":"FRESH","line1":"1 67583U 26016Y   26262.44823859  .00023173  00000+0  71750-3 0  9993","line2":"2 67583  97.2865 321.1925 0001621  92.0987 268.0441 15.33462641 36566","mean_motion":15.33462641,"eccentricity":0.0001621,"inclination_deg":97.2865,"raan_deg":321.1925,"arg_perigee_deg":92.0987,"mean_anomaly_deg":268.0441,"bstar":0.0007175,"rev_number":3656,"period_min":93.905124357053,"perigee_km":464.38133572862,"apogee_km":466.600039825,"semimajor_km":6843.6276877768,"source":"CELESTRAK","updated_at":"2026-09-20T09:00:43.599633Z"}}}